Location: Jaite
(41.2884°N, 81.5737°W)
Time: 04:59:35
(UTC+00:00)

Cosmos 407 Rocket - Pass Details

Date: 15 November 2025
Orbit: 740 x 780 km, 74.0° (Epoch: 04 December)

Event Time Altitude Azimuth Distance (km) Brightness Sun altitude
Rises 23:57:36 0° 214° (SW) 3,214 7.3 -20.7°
Reaches altitude 10° 00:00:04 10° 220° (SW) 2,286 6.6 -21.2°
Maximum altitude 00:05:03 47° 294° (WNW) 998 4.4 -22.1°
Drops below altitude 10° 00:10:01 10° 8° (N) 2,276 5.8 -23.0°
Enters shadow 00:10:21 - 9° (N) 2,398 5.9 -23.1°
